Location: fuzhou
(26.1169°N, 119.3250°E)
Time: 11:14:22
(UTC+08:00)

ISS - Visible Passes

Search period start: 24 January 2018 00:00
Search period end: 03 February 2018 00:00
Orbit: 402 x 407 km, 51.6° (Epoch: 24 January)

Date Brightness Start Highest point End Pass type
(mag) Time Alt. Az. Time Alt. Az. Time Alt. Az.
24 Jan -3.9 18:13:34 10° SW 18:16:48 81° SE 18:20:00 10° NE visible
25 Jan -1.1 18:59:11 10° WNW 19:01:05 15° NW 19:02:57 10° N visible
26 Jan -2.1 18:05:46 10° WSW 18:08:40 29° NW 18:11:33 10° NNE visible
